Regional Weather Roundup
Issued by NWS Upton, NY

Home | Current Version | Previous Version | Text Only | Print | Product List | Glossary On
Versions: 1 2 3 4 5 6 7 8 9 10 11 12 13 14 15 16 17 18 19 20 21 22 23 24 25 26 27 28 29 30 31 32 33 34 35 36 37 38 39 40 41 42 43 44 45 46 47 48 49 50
000
ASUS41 KOKX 280304
RWROKX

REGIONAL WEATHER ROUNDUP
NATIONAL WEATHER SERVICE NEW YORK NY
1100 PM EDT FRI MAY 27 2016

NOTE: "FAIR" INDICATES FEW OR NO CLOUDS BELOW 12,000 FEET WITH NO
SIGNIFICANT WEATHER AND/OR OBSTRUCTIONS TO VISIBILITY.

NYZ071-072-176-178-NJZ106-104-280400-
NEW YORK CITY METRO AREA


CITY           SKY/WX    TMP DP  RH WIND       PRES   REMARKS
CENTRAL PARK   MOCLDY    77  63  61 VRB3      30.08R
LAGUARDIA APRT MOCLDY    75  67  76 S12       30.04S
KENNEDY INTL   PTCLDY    67  59  75 S13       30.08R
NEWARK/LIBERTY MOCLDY    78  65  63 S14       30.04S
BRNX BOT. GARD   N/A    N/A N/A N/A E1        30.07R
TETERBORO      PTCLDY    79  63  57 S10       30.03S
$$

NYZ177-179-078>081-280400-
LONG ISLAND NEW YORK

CITY           SKY/WX    TMP DP  RH WIND       PRES   REMARKS
FARMINGDALE    CLEAR     68  57  68 SW13      30.08S
ISLIP          MOCLDY    69  55  60 SW17G25   30.08S
SHIRLEY        CLEAR     68  56  65 SW13G23   30.10S
RIVERHEAD        N/A     68  55  64 W2        30.07S
WESTHAMPTON    CLEAR     65  55  70 SW12      30.11S
EAST HAMPTON   FAIR      64  55  71 SW10G21   30.09F
MONTAUK POINT    N/A     64  56  75 SW12G21   30.10F
$$

NYZ052-065-067-280400-
HUDSON VALLEY

CITY           SKY/WX    TMP DP  RH WIND       PRES   REMARKS
WHITE PLAINS   PTCLDY    68  61  78 S5        30.06R
NEWBURGH       MOCLDY    70  68  94 CALM      30.06R
MONTGOMERY     CLEAR     70  68  93 CALM      30.04R FOG
POUGHKEEPSIE   CLOUDY    72  67  84 SE5       30.03R
ALBANY         PTCLDY    76  67  73 S7        30.00S
$$

NJZ001-105-106-008-010-013-015-019>022-104-280400-
NEW JERSEY

CITY           SKY/WX    TMP DP  RH WIND       PRES   REMARKS
NEWARK/LIBERTY MOCLDY    78  65  63 S14       30.04S
TETERBORO      PTCLDY    79  63  57 S10       30.03S
CALDWELL       PTCLDY    81  66  60 VRB5      30.04R
MORRISTOWN     PTCLDY    77  63  61 SW7       30.05S
SOMERVILLE     CLEAR     72  68  87 CALM      30.04R
SUSSEX         CLEAR     72  67  84 CALM      30.05S
ANDOVER          N/A     74  67  78 CALM      30.06S
TRENTON        CLEAR     76  65  68 S8        30.07R
MILLVILLE      CLEAR     72  57  59 VRB6      30.11S
ATLANTIC CITY  PTCLDY    72  56  57 SW10      30.12R
WRIGHTSTOWN    PTCLDY    71  63  73 SW8       30.06S
TOMS RIVER     PTCLDY    72  52  49 S10G16    30.10S
BELMAR         PTCLDY    72  58  61 S9        30.10S
$$

PAZ047>061-062-071-280400-
EASTERN PENNSYLVANIA

CITY           SKY/WX    TMP DP  RH WIND       PRES   REMARKS
PHILADELPHIA   PTCLDY    75  64  68 S7        30.09S
ALLENTOWN      CLEAR     76  66  71 SW5       30.06R
SCRANTON       PTCLDY    73  65  75 CALM      30.06S
$$

CTZ002-004>006-009-010-012-RIZ004-006-007-MAZ004-011-015-280400-
SOUTHERN NEW ENGLAND
 IN CT

CITY           SKY/WX    TMP DP  RH WIND       PRES   REMARKS
BRADLEY INTL   MOCLDY    72  62  71 S9        30.04R
HARTFORD       PTCLDY    72  61  68 S8        30.05S
DANBURY        CLOUDY    67  64  90 CALM      30.07R
WTRBRY/OXFORD    N/A     64  59  82 S5        30.08S
BRIDGEPORT     CLEAR     69  59  70 S6        30.06S
MERIDEN        PTCLDY    69  60  73 S5        30.06S
NEW HAVEN      PTCLDY    66  59  78 CALM      30.07S
CHESTER        FAIR      66  59  77 SW9G15    30.08S
GROTON         CLEAR     61  57  87 S3        30.07F
WILLIMANTIC    CLEAR     70  60  70 S6        30.07S

 IN RI

CITY           SKY/WX    TMP DP  RH WIND       PRES   REMARKS
PROVIDENCE     MOCLDY    68  57  68 SW8       30.08S
BLOCK ISLAND   CLEAR     60  55  83 SW14      30.10F
WESTERLY       CLEAR     64  53  67 S6        30.09F

 IN MA

CITY           SKY/WX    TMP DP  RH WIND       PRES   REMARKS
BOSTON         PTCLDY    71  62  73 SW12      30.03F
WORCESTER      CLEAR     70  60  70 SW14      30.07S
WESTFIELD      CLOUDY    68  65  90 S3        30.03S
PROVINCETOWN   CLOUDY    61  57  87 SW13      30.08R
NANTUCKET      CLEAR     59  56  89 SW9       30.12S
$$

ANZ330-335-338-340-345-350-353-355-280400-
COASTAL MARINE OBSERVATIONS


STATION/POSITION TIME  SKY/WX   TEMP    WIND        PRES    VSBY  WAVE
                                AIR SEA DIR/SP/G                  HT/PER
                 (UTC)          (F)     (DEG/KT/KT) (MB)    (MI)  (FT/S)
NY HARB ENTRANCE 0150            63 58  200/ 19/ 23 1017.5          5/ 5
20S FIRE ISLAND  0150            62 59  210/ 17/ 19 1018.7          4/ 5
GREAT SOUTH BAY  0200            66 69  230/ 16/ 25   N/A
23 SSW MONTAUK P 0250            61 57  220/ 16/ 19 1018.4          4/ 6
15 E BARNEGAT LI 0222               60                N/A           4/ 5
HUDSON CANYON    0150            62 57              1020.1          3/ 6
KINGS POINT      0200                               1017.4
EXECUTION ROCKS  NOT AVBL
CENTRAL LI SOUND 0200            67     230/ 12/ 17   N/A           2/ 3
EASTERN LI SOUND 0200            61 53  240/  8/  8   N/A
ROBBINS REEF     0200                   190/ 14/ 16 1016.7
$$


>>>>>>>>>>>>>>>>>>>>>>>>>>>> KEY <<<<<<<<<<<<<<<<<<<<<<<<<<<
>                                                          <
>     SKY/WX - SKY CONDITION/PRESENT WEATHER               <
>     TMP    - TEMPERATURE IN FAHRENHEIT                   <
>     DP     - DEWPOINT IN FAHRENHEIT                      <
>     RH     - RELATIVE HUMIDITY IN PERCENT                <
>     WIND   - DIRECTION AND SPEED IN MPH                  <
>     PRES   - MEAN SEA LEVEL PRESSURE IN INCHES OF HG     <
>     WCI    - WIND CHILL INDEX                            <
>     VSB    - VISIBILITY IN MILES                         <
>     HX     - HEAT INDEX                                  <
>     TC     - TEMPERATURE IN CELSIUS                      <
>     VRB    - VARIABLE WIND DIRECTION                     <
>                                                          <
>>>>>>>>>>>>>>>>>>>>>>>>>>>> KEY <<<<<<<<<<<<<<<<<<<<<<<<<<<





USA.gov is the U.S. government's official web portal to all federal, state and local government web resources and services.